[[{"header":{"parameterUnit":"m.s-1","parameterCategory":1,"la1":30.2991,"la2":30.254,"lo1":-89.0895,"lo2":-89.0444,"dy":0.0017,"dx":0.0017,"nx":28,"ny":28,"refTime":"2025-02-05T03:00:00:Z","depth":0,"parameterNumber":2,"parameterNumberName":"U-component_of_WINDS"},"data":[0,0,0,0,0,0,0,0,0,0,0,0,0,0,0,0,0,0,0,0,0,0,0,0,0,0,0,0,0,0,0,0,0,0,0,0,0,0,0,0,0,0,0,0,0,0,0,0,0,0,0,0,0,0,0,0,0,0,-1.0616,-1.0615,0,-1.0569,-1.0568,-1.0568,-1.0526,-1.0526,-1.0525,-1.0525,-1.0476,-1.0475,-1.0474,0,0,0,0,0,0,0,0,0,0,0,0,0,-1.0669,-1.0668,-1.0616,-1.0615,-1.0614,-1.0569,-1.0568,-1.0568,-1.0526,-1.0526,-1.0525,-1.0525,-1.0476,-1.0475,-1.0474,0,0,0,0,0,0,0,0,0,0,0,0,0,-1.0636,-1.0668,-1.0616,-1.0589,-1.0586,-1.0569,-1.0568,-1.0567,-1.0527,-1.0526,-1.0525,-1.0525,-1.0476,-1.0475,-1.0474,-1.048,0,0,-1.047,-1.0469,0,0,0,0,0,0,0,0,-1.0638,-1.0635,-1.0593,-1.059,-1.0587,-1.0553,-1.0569,-1.0538,-1.0527,-1.0549,-1.0525,-1.0524,-1.0502,-1.0499,-1.0491,-1.0478,-1.0476,-1.047,-1.0469,-1.0469,-1.0468,0,0,0,0,0,0,0,-1.0641,-1.0636,-1.0597,-1.0593,-1.0589,-1.0579,-1.0573,-1.0563,-1.053,-1.0547,-1.0544,-1.0539,-1.05,-1.0493,-1.049,-1.0475,-1.047,-1.0469,-1.0468,-1.0467,-1.0465,-1.0465,0,0,0,0,0,0,-1.0647,-1.0638,-1.0599,-1.0596,-1.0612,-1.0578,-1.0572,-1.0564,-1.053,-1.0524,-1.054,-1.0537,-1.0495,-1.0491,-1.0488,-1.0493,-1.0469,-1.0467,-1.0467,-1.0464,-1.0465,-1.0466,0,0,0,0,0,0,-1.0649,-1.0644,-1.06,-1.0616,-1.061,-1.0578,-1.057,-1.0564,-1.0556,-1.0524,-1.0518,-1.0538,-1.0494,-1.049,-1.0483,-1.049,-1.0467,-1.0466,-1.0463,-1.0464,-1.0465,-1.0502,0,0,0,0,0,0,-1.065,-1.0645,-1.0647,-1.0617,-1.0609,-1.0596,-1.057,-1.0564,-1.0554,-1.0551,-1.0521,-1.0516,-1.0494,-1.0485,-1.0481,-1.0488,-1.0465,-1.0462,-1.0464,-1.0465,-1.05,-1.0505,-1.0508,0,0,0,0,0,-1.0652,-1.0659,-1.0647,-1.0643,-1.0611,-1.0597,-1.0592,-1.0567,-1.0555,-1.0557,-1.0537,-1.0517,-1.0491,-1.0484,-1.048,-1.0487,-1.0462,-1.0463,-1.0465,-1.0499,-1.0504,-1.0508,0,0,0,0,0,0,-1.069,-1.0654,-1.0641,-1.0638,-1.0621,-1.059,-1.0591,-1.0573,-1.0559,-1.0556,-1.0525,-1.0519,-1.0515,-1.05,-1.0494,-1.0491,-1.0473,-1.0474,-1.05,-1.0505,-1.0509,-1.0512,-1.0463,0,0,0,0,0,-1.0698,-1.069,-1.0659,-1.0659,-1.0651,-1.0623,-1.0616,-1.0598,-1.0578,-1.0571,-1.055,-1.0532,-1.0519,-1.0512,-1.0498,-1.0499,-1.0491,-1.0501,-1.0505,-1.0509,-1.0509,-1.0508,-1.0512,-1.0471,-1.0471,-1.0471,0,0,-1.0715,-1.0694,-1.069,-1.0666,-1.0651,-1.0642,-1.0617,-1.0609,-1.0602,-1.0569,-1.0561,-1.0546,-1.0523,-1.052,-1.0517,-1.0507,-1.0519,-1.0511,-1.0514,-1.0512,-1.051,-1.0514,-1.0518,-1.0472,-1.0472,-1.0471,0,0,-1.074,-1.0724,-1.0722,-1.0708,-1.0685,-1.0666,-1.0666,-1.0638,-1.0626,-1.0618,-1.0593,-1.0585,-1.0564,-1.0549,-1.0539,-1.056,-1.0541,-1.0557,-1.0577,-1.0577,-1.058,-1.0582,-1.0589,-1.0592,-1.0558,-1.0558,-1.0558,0,-1.0763,-1.075,-1.0724,-1.0718,-1.0708,-1.0679,-1.0677,-1.0664,-1.0638,-1.0631,-1.0621,-1.0595,-1.0578,-1.057,-1.0576,-1.0569,-1.0567,-1.0559,-1.0582,-1.0584,-1.0586,-1.0592,-1.0595,-1.056,-1.056,-1.056,-1.056,0,-1.0779,-1.077,-1.0772,-1.0748,-1.0738,-1.0734,-1.0708,-1.0701,-1.0685,-1.0667,-1.0659,-1.0638,-1.062,-1.0617,-1.0601,-1.0608,-1.0602,-1.0587,-1.0569,-1.0592,-1.0598,-1.06,-1.0563,-1.0562,-1.0562,-1.0561,0,0,-1.0825,-1.0788,-1.0789,-1.0778,-1.0751,-1.0744,-1.0739,-1.0722,-1.0717,-1.07,-1.0695,-1.0679,-1.0665,-1.0654,-1.0635,-1.0635,-1.0653,-1.062,-1.0619,-1.0626,-1.0658,-1.0669,-1.0672,-1.0641,-1.0641,-1.0641,-1.066,0,-1.0846,-1.0835,-1.0812,-1.0808,-1.08,-1.0773,-1.0768,-1.0751,-1.0735,-1.0725,-1.0707,-1.0696,-1.0679,-1.0672,-1.0671,-1.0651,-1.0659,-1.0649,-1.0635,-1.0635,-1.064,-1.0675,-1.0686,-1.0705,-1.0662,-1.0662,-1.0663,0,-1.0867,-1.0853,-1.0849,-1.0823,-1.0819,-1.0815,-1.0798,-1.0789,-1.077,-1.0758,-1.0746,-1.0726,-1.0719,-1.0703,-1.0693,-1.0687,-1.068,-1.067,-1.067,-1.0667,-1.0649,-1.0672,-1.071,-1.0713,-1.0666,-1.0666,-1.0665,0,-1.0901,-1.0881,-1.0875,-1.0867,-1.0837,-1.0835,-1.0822,-1.0802,-1.0794,-1.0779,-1.0773,-1.0758,-1.0749,-1.0737,-1.0714,-1.0705,-1.0707,-1.0689,-1.0696,-1.0697,-1.0696,-1.0696,-1.0733,-1.0694,-1.0694,-1.0694,-1.0694,0,-1.0925,-1.0923,-1.089,-1.0887,-1.0884,-1.0858,-1.0856,-1.0841,-1.0823,-1.0817,-1.0793,-1.0787,-1.0757,-1.0747,-1.0729,-1.0723,-1.072,-1.071,-1.0705,-1.0711,-1.0713,-1.0705,-1.0703,-1.0695,-1.0694,-1.0694,-1.0694,0,-1.0961,-1.0939,-1.0931,-1.0904,-1.0897,-1.0896,-1.0873,-1.0869,-1.0852,-1.0843,-1.084,-1.0813,-1.0801,-1.0777,-1.0758,-1.0746,-1.0744,-1.0735,-1.075,-1.0747,-1.0755,-1.0754,-1.0787,-1.079,-1.0751,-1.0751,-1.0751,0,-1.0978,-1.0976,-1.0949,-1.0943,-1.0931,-1.0922,-1.0913,-1.0888,-1.088,-1.0858,-1.0856,-1.0842,-1.083,-1.0812,-1.079,-1.0776,-1.0766,-1.0779,-1.0764,-1.077,-1.0765,-1.0765,-1.0765,-1.0782,-1.0782,-1.0783,-1.0783,0,-1.1009,-1.0999,-1.0987,-1.0972,-1.0963,-1.0949,-1.0935,-1.0931,-1.0903,-1.0895,-1.0883,-1.0873,-1.0854,-1.084,-1.0823,-1.081,-1.0792,-1.0789,-1.0789,-1.0795,-1.0803,-1.0798,-1.0758,-1.0787,-1.0787,-1.0787,-1.0786,-1.0786,-1.1035,-1.1032,-1.1013,-1.1001,-1.0988,-1.0975,-1.097,-1.0952,-1.0942,-1.0924,-1.0911,-1.0899,-1.088,-1.0855,-1.0843,-1.0834,-1.0825,-1.0826,-1.0826,-1.0827,-1.0829,-1.0806,-1.0831,-1.083,-1.083,-1.083,-1.083,0,-1.1065,-1.1051,-1.1041,-1.1022,-1.1012,-1.0997,-1.0981,-1.0974,-1.0964,-1.0948,-1.0937,-1.0923,-1.091,-1.0888,-1.0873,-1.0869,-1.0861,-1.0866,-1.0866,-1.0863,-1.0838,-1.0839,-1.0874,-1.0874,-1.0874,-1.0874,-1.0874,-1.0874,-1.1079,-1.1073,-1.106,-1.1048,-1.1034,-1.1023,-1.1015,-1.1003,-1.099,-1.0975,-1.0964,-1.0951,-1.0932,-1.0916,-1.0903,-1.0897,-1.0892,-1.09,-1.0892,-1.0869,-1.0865,-1.0861,-1.0861,-1.09,-1.09,-1.0917,-1.0917,-1.0917]},{"header":{"parameterUnit":"m.s-1","parameterCategory":1,"la1":30.2991,"la2":30.254,"lo1":-89.0895,"lo2":-89.0444,"dy":0.0017,"dx":0.0017,"nx":28,"ny":28,"refTime":"2025-02-05T03:00:00:Z","depth":0,"parameterNumber":3,"parameterNumberName":"V-component_of_WINDS"},"data":[0,0,0,0,0,0,0,0,0,0,0,0,0,0,0,0,0,0,0,0,0,0,0,0,0,0,0,0,0,0,0,0,0,0,0,0,0,0,0,0,0,0,0,0,0,0,0,0,0,0,0,0,0,0,0,0,0,0,2.0467,2.0467,0,2.0485,2.0485,2.0486,2.0503,2.0503,2.0504,2.0504,2.052,2.052,2.052,0,0,0,0,0,0,0,0,0,0,0,0,0,2.0447,2.0448,2.0467,2.0467,2.0468,2.0485,2.0485,2.0486,2.0503,2.0503,2.0504,2.0504,2.052,2.052,2.052,0,0,0,0,0,0,0,0,0,0,0,0,0,2.046,2.0448,2.0467,2.0479,2.048,2.0485,2.0485,2.0486,2.0503,2.0503,2.0504,2.0504,2.052,2.052,2.052,2.0515,0,0,2.0521,2.0521,0,0,0,0,0,0,0,0,2.0459,2.046,2.0477,2.0478,2.0479,2.0492,2.0484,2.0495,2.0503,2.0494,2.0504,2.0504,2.051,2.0511,2.0514,2.0516,2.0516,2.0521,2.0521,2.0521,2.0522,0,0,0,0,0,0,0,2.0458,2.046,2.0474,2.0477,2.0478,2.0483,2.0485,2.0487,2.05,2.0495,2.0496,2.0498,2.0511,2.0513,2.0514,2.0517,2.0521,2.0521,2.0522,2.0522,2.0518,2.0518,0,0,0,0,0,0,2.0456,2.0459,2.0474,2.0475,2.047,2.0483,2.0485,2.0488,2.05,2.0502,2.0498,2.0499,2.0513,2.0514,2.0515,2.0511,2.0521,2.0522,2.0522,2.0518,2.0518,2.0518,0,0,0,0,0,0,2.0455,2.0457,2.0473,2.0467,2.047,2.0483,2.0485,2.0488,2.049,2.0502,2.0505,2.0498,2.0513,2.0514,2.0516,2.0512,2.0522,2.0522,2.0519,2.0518,2.0518,2.0503,0,0,0,0,0,0,2.0454,2.0457,2.0455,2.0467,2.047,2.0473,2.0485,2.0488,2.0491,2.0493,2.0503,2.0505,2.0513,2.0515,2.0516,2.0513,2.0522,2.0519,2.0518,2.0518,2.0504,2.0502,2.0501,0,0,0,0,0,2.0454,2.0449,2.0454,2.0456,2.0468,2.0473,2.0475,2.0485,2.0491,2.0489,2.0497,2.0505,2.0512,2.0515,2.0516,2.0513,2.0519,2.0519,2.0518,2.0504,2.0502,2.0501,0,0,0,0,0,0,2.0434,2.045,2.0457,2.0456,2.0463,2.0476,2.0474,2.0482,2.0487,2.0488,2.0501,2.0503,2.0503,2.0508,2.0511,2.051,2.0517,2.0517,2.0506,2.0504,2.0503,2.0502,2.0523,0,0,0,0,0,2.043,2.0433,2.0447,2.0445,2.0448,2.0461,2.0463,2.0471,2.0479,2.0482,2.049,2.0496,2.0501,2.0503,2.0507,2.0505,2.0508,2.0503,2.0502,2.05,2.05,2.0501,2.0499,2.0515,2.0515,2.0516,0,0,2.042,2.043,2.0431,2.0441,2.0448,2.0451,2.0463,2.0465,2.0468,2.0482,2.0484,2.049,2.0499,2.0499,2.0499,2.0503,2.0496,2.05,2.0498,2.0499,2.05,2.0498,2.0497,2.0515,2.0515,2.0515,0,0,2.0405,2.0412,2.0412,2.0419,2.043,2.0439,2.0439,2.0451,2.0456,2.0459,2.047,2.0473,2.0479,2.0486,2.049,2.048,2.0488,2.0481,2.0472,2.0473,2.0472,2.0471,2.0469,2.0468,2.0481,2.048,2.048,0,2.0392,2.0398,2.0411,2.0413,2.0418,2.0433,2.0433,2.0439,2.045,2.0453,2.0457,2.0467,2.0474,2.0476,2.0474,2.0477,2.0478,2.048,2.0471,2.0471,2.047,2.0468,2.0467,2.048,2.048,2.048,2.048,0,2.0382,2.0386,2.0384,2.0397,2.0401,2.0402,2.0416,2.0419,2.0427,2.0436,2.0439,2.0448,2.0455,2.0456,2.0463,2.0461,2.0463,2.0469,2.0477,2.0467,2.0465,2.0465,2.0479,2.0479,2.0479,2.0479,0,0,2.0353,2.0374,2.0374,2.038,2.0394,2.0398,2.04,2.0409,2.0412,2.0419,2.0422,2.0429,2.0436,2.044,2.0448,2.0449,2.0443,2.0456,2.0456,2.0454,2.0442,2.0437,2.0436,2.0448,2.0448,2.0448,2.0442,0,2.0341,2.0347,2.036,2.0362,2.0367,2.0382,2.0385,2.0394,2.0402,2.0407,2.0416,2.0421,2.0429,2.0432,2.0434,2.0443,2.0441,2.0444,2.0451,2.0451,2.0449,2.0435,2.043,2.0423,2.0441,2.0441,2.0441,0,2.0327,2.0336,2.0339,2.0355,2.0357,2.0359,2.037,2.0374,2.0385,2.0391,2.0398,2.0408,2.0412,2.0419,2.0425,2.0427,2.0431,2.0437,2.0437,2.0438,2.0445,2.0436,2.0421,2.042,2.0439,2.044,2.044,0,2.0307,2.0319,2.0324,2.0329,2.0347,2.0348,2.0356,2.0367,2.0373,2.0381,2.0385,2.0393,2.0398,2.0405,2.0417,2.0421,2.0422,2.043,2.0428,2.0427,2.0427,2.0427,2.0413,2.0429,2.0429,2.0429,2.0429,0,2.0292,2.0294,2.0315,2.0318,2.0321,2.0336,2.0338,2.0347,2.0357,2.0362,2.0375,2.0379,2.0395,2.0401,2.041,2.0415,2.0416,2.0422,2.0424,2.0421,2.042,2.0424,2.0424,2.0429,2.0429,2.0429,2.0429,0,2.027,2.0284,2.029,2.0308,2.0313,2.0314,2.0329,2.0332,2.0343,2.0349,2.0351,2.0367,2.0375,2.0388,2.0399,2.0405,2.0408,2.0412,2.0405,2.0407,2.0404,2.0404,2.0392,2.0391,2.0407,2.0407,2.0407,0,2.0259,2.0262,2.0281,2.0285,2.0293,2.03,2.0306,2.0322,2.0327,2.0342,2.0343,2.0353,2.0361,2.0373,2.0385,2.0395,2.0399,2.0394,2.04,2.0398,2.04,2.04,2.0401,2.0393,2.0392,2.0392,2.0392,0,2.024,2.0248,2.0257,2.0268,2.0276,2.0285,2.0295,2.0298,2.0316,2.0322,2.0331,2.0338,2.0351,2.036,2.0372,2.0379,2.0389,2.039,2.039,2.0387,2.0383,2.0386,2.0402,2.039,2.039,2.039,2.0391,2.0391,2.0224,2.0228,2.0242,2.0252,2.0262,2.0272,2.0276,2.0288,2.0296,2.0309,2.0318,2.0327,2.0339,2.0356,2.0363,2.0371,2.0375,2.0374,2.0375,2.0374,2.0374,2.0382,2.0373,2.0373,2.0373,2.0373,2.0373,0,2.0207,2.0217,2.0226,2.0241,2.0249,2.0259,2.0271,2.0277,2.0285,2.0297,2.0306,2.0317,2.0327,2.0341,2.0352,2.0355,2.036,2.0358,2.0358,2.036,2.0369,2.0368,2.0354,2.0354,2.0354,2.0354,2.0354,2.0354,2.0198,2.0205,2.0215,2.0227,2.0238,2.0248,2.0254,2.0264,2.0273,2.0286,2.0295,2.0304,2.0317,2.033,2.0339,2.0343,2.0347,2.0343,2.0348,2.0357,2.0359,2.036,2.036,2.0344,2.0344,2.0339,2.0339,2.0339]}]]